Regional Weather Roundup
Issued by NWS

Home | Current Version | Previous Version | Text Only | Print | Product List | Glossary On
Versions: 1 2 3 4 5 6 7 8 9 10 11 12 13 14 15 16 17 18 19 20 21 22 23 24 25 26 27 28 29 30 31 32 33 34 35 36 37 38 39 40
000
ASUS42 KTBW 280310
RWRFL
FLORIDA REGIONAL WEATHER ROUNDUP
NATIONAL WEATHER SERVICE TAMPA BAY RUSKIN FL
1000 PM EST SAT DEC 27 2014

NOTE: "FAIR" INDICATES FEW OR NO CLOUDS BELOW 12,000 FEET WITH NO
SIGNIFICANT WEATHER AND/OR OBSTRUCTIONS TO VISIBILITY.


FLZ001>010-012>015-112-114-115-280400-
PANHANDLE FLORIDA

CITY           SKY/WX    TMP DP  RH WIND       PRES   REMARKS
PENSACOLA      CLOUDY    60  55  83 E10       30.16S
MILTON NAS     CLOUDY    57  51  80 E8        30.18R
CRESTVIEW      CLOUDY    56  50  80 E3        30.20F
DUKE FIELD     FAIR      59  52  76 E7        30.18F
VALPARAISO     MOCLDY    59  55  87 E5        30.18S
PANAMA CITY    FAIR      61  55  81 NE8       30.19S
TYNDALL AFB    CLOUDY    63  60  89 NE6       30.21S
APALACHICOLA   MOCLDY    65  55  70 E5        30.21R

STATION/POSITION SKY/WX   TEMP    WIND        PRES    WAVE   SWELL
                          AIR SEA DIR/SP/G            HT/PER HT/PER
                          (F)     (DEG/KT/KT) (MB)    (FT/S) (FT/S)
30.1N   87.6W              69 68  100/ 16/ 17 1020.2R   4/ 5   2/ 9
29.2N   88.2W              74 74  170/ 14/ 16 1019.7R   5/ 8   3/ 8
28.7N   86.0W              74 74  140/  8/  8 1022.0R   3/ 4   2/ 4
PANAMA CITY BEAC           62 62   60/  6/  9 1022.3S
CAPE SAN BLAS    NOT AVBL
TOWER C                    63      80/  9/  9 1022.7F
28.5N   84.5W              70 71   80/ 10/ 10 1022.5R   1/ 4

$$
FLZ011-016>038-118-127-128-134-139-239-280400-
NORTH FLORIDA

CITY           SKY/WX    TMP DP  RH WIND       PRES   REMARKS
MARIANNA       CLOUDY    58  57  97 SE3       30.21F
TALLAHASSEE    PTCLDY    58  53  84 CALM      30.22R
PERRY          CLEAR     57  56  97 CALM      30.23R
CROSS CITY       N/A     59  57  93 CALM      30.22R
LAKE CITY      FAIR      59  59 100 CALM      30.23S FOG
GAINESVILLE    CLEAR     63  61  93 E3        30.22S
MAYPORT NAS    CLEAR     61  60  97 N5        30.22F
JACKSONVILLE   PTCLDY    57  57 100 N3        30.23R
JAX NAS        PTCLDY    65  60  84 N3        30.23S
JAX CRAIG      CLEAR     62  59  90 CALM      30.22F
JAX CECIL      PTCLDY    59  57  94 CALM      30.23S
FERNANDINA BEA FAIR      64  63  94 CALM      30.22S
ST AUGUSTINE   CLOUDY    64  63  96 N3        30.23S

STATION/POSITION SKY/WX   TEMP    WIND        PRES    WAVE   SWELL
                          AIR SEA DIR/SP/G            HT/PER HT/PER
                          (F)     (DEG/KT/KT) (MB)    (FT/S) (FT/S)
SHELL POINT                64      10/  3/  4   N/A
KEATON BEACH               62      50/  3/  3 1023.2F
CEDAR KEY                  66     330/  3/  4 1023.7R
FERNANDINA                 60 62   20/  4/  6 1023.1S
30.7N   81.3W                 60                N/A     2/18   2/18
MAYPORT                    61 63   20/  3/  4   N/A
31.4N   80.9W              60 59   30/  6/  6 1023.9S   3/17   2/17
ST AUGUSTINE               63     360/  8/  9 1023.8S

$$
FLZ040-043>046-052-053-057-058-063-144-280400-
INTERIOR CENTRAL FLORIDA

CITY           SKY/WX    TMP DP  RH WIND       PRES   REMARKS
OCALA          PTCLDY    66  63  88 CALM      30.22R
THE VILLAGES     N/A     70  66  88 NE5       30.12R
LEESBURG       CLOUDY    70  67  90 NE5       30.22R
SANFORD        CLOUDY    70  67  90 NE3       30.21R
ORLANDO EXEC   CLOUDY    72  69  90 NE3       30.21R
ORLANDO INTL   MOCLDY    71  69  93 E3        30.21R
KISSIMMEE      CLOUDY    72  70  94 CALM      30.21R
WINTER HAVEN   MOCLDY    70  67  90 NE5       30.21R
LAKELAND       CLOUDY    68  66  94 CALM      30.21R
BARTOW         CLOUDY    66  66 100 NE5       30.21S
OKEECHOBEE     CLOUDY    68  68 100 CALM      30.20R

$$
FLZ041-047-054-059-064-141-147-280400-
EAST CENTRAL FLORIDA

CITY           SKY/WX    TMP DP  RH WIND       PRES   REMARKS
DAYTONA BEACH  MOCLDY    68  66  93 CALM      30.21S
DELAND         CLOUDY   N/A N/A N/A NW3       30.22S
JFK SPACE CTR  CLOUDY    68  67  95 CALM      30.20R FOG
CAPE CANAVERAL MOCLDY    69  67  96 SE2       30.19S
PATRICK AFB    MOCLDY    70  70  99 SE5       30.20R FOG
MELBOURNE      MOCLDY    72  69  90 SE3       30.20R
VERO BEACH     FOG       68  66  93 CALM      30.20S VSB 1/4
FT PIERCE      FOG       66  66 100 CALM      30.20R VSB 1/2
STUART         PTCLDY    70  68  94 CALM      30.20S

STATION/POSITION SKY/WX   TEMP    WIND        PRES    WAVE   SWELL
                          AIR SEA DIR/SP/G            HT/PER HT/PER
                          (F)     (DEG/KT/KT) (MB)    (FT/S) (FT/S)
28.5N   80.2W              75 76  140/  8/ 10 1022.6S
28.9N   78.5W              75 77  110/ 10/ 12 1023.0F   4/16   3/16
TRIDENT PIER               70 67   90/  3/  3 1022.1R
28.4N   80.5W                 68                N/A     2/18   2/18
27.6N   80.2W                 75                N/A     3/13   2/13

$$
FLZ050-056-061-142-242-148-248-149-249-151-251-155-255-
160-260-280400-
WEST CENTRAL FLORIDA

CITY           SKY/WX    TMP DP  RH WIND       PRES   REMARKS
CRYSTAL RIVER  CLOUDY    64  61  88 CALM      30.22R
INVERNESS      CLOUDY    68  64  88 CALM      30.22S
BROOKSVILLE    CLOUDY    70  64  81 N5        30.22S
ZEPHYRHILLS    CLOUDY    70  66  88 CALM      30.22R
CLEARWATER     CLOUDY    69  66  90 N6        30.20S
TAMPA INTL     MOCLDY    70  65  84 N8        30.21R
TAMPA EXEC     CLOUDY    72  64  78 N5        30.21S
PLANT CITY     CLOUDY    72 N/A N/A N5        30.22S
MACDILL AFB    CLOUDY    69  69 100 NW3       30.21R
PETER O KNIGHT CLOUDY    73  68  83 CALM      30.21R
ST PETERSBURG  MOCLDY    70  66  87 NE3       30.19R
SARASOTA       MOCLDY    67  66  97 N5        30.19R
VENICE         FAIR      68  66  94 NE3       30.20R

STATION/POSITION SKY/WX   TEMP    WIND        PRES    WAVE   SWELL
                          AIR SEA DIR/SP/G            HT/PER HT/PER
                          (F)     (DEG/KT/KT) (MB)    (FT/S) (FT/S)
CEDAR KEY                  66     330/  3/  4 1023.7R
28.5N   84.5W              70 71   80/ 10/ 10 1022.5R   1/ 4
27.3N   84.3W                 75                N/A     2/ 3
CLEARWATER BEACH           68 67  360/  8/  9 1022.6S
MIDDLE TAMPA BAY           68      10/  6/  6 1022.9R
VENICE                     69 69   30/  3/  3 1022.1R

$$
FLZ066-069-070-075>078-162-262-165-265-280400-
SOUTHWEST FLORIDA AND KEYS

CITY           SKY/WX    TMP DP  RH WIND       PRES   REMARKS
PUNTA GORDA    MOCLDY    67  66  97 CALM      30.21R
FT MYERS       CLOUDY    71  68  90 CALM      30.18R
SOUTHWEST INTL MOCLDY    71  68  90 CALM      30.19R
NAPLES         MOCLDY    70  68  93 CALM      30.18S
MARCO ISLAND   MOCLDY    70  66  88 E3        30.18S
MARATHON       PTCLDY    76  69  79 E7        30.16S
KEY WEST NAS   PTCLDY    75  68  78 E12       30.16R
KEY WEST INTL  MOCLDY    77  69  76 E13       30.16S

STATION/POSITION SKY/WX   TEMP    WIND        PRES    WAVE   SWELL
                          AIR SEA DIR/SP/G            HT/PER HT/PER
                          (F)     (DEG/KT/KT) (MB)    (FT/S) (FT/S)
VENICE                     69 69   30/  3/  3 1022.1R
NAPLES                     72 76   90/  2/  3 1022.6R
26.0N   85.6W              74 74  110/ 12/ 14 1020.7R   3/ 5   2/ 6
DRY TORTUGAS               73      80/ 13/ 16 1020.6R
NW FL BAY                  75      90/  7/  8 1021.7S
SAND KEY                   77     130/ 19/ 22 1020.7F
SOMBRERO KEY               77     110/ 18/ 20 1021.8F
LONG KEY                   76 75  110/ 11/ 13 1022.3F
MOLASSES REEF              77 78   90/ 12/ 14 1021.7F

$$
FLZ067-068-071>074-168-172>174-280400-
SOUTHEAST FLORIDA

CITY           SKY/WX    TMP DP  RH WIND       PRES   REMARKS
W PALM BEACH   MOCLDY    73  69  87 CALM      30.18S
FT LAUDER-EXEC MOCLDY    74  67  78 SE6       30.19R
FT LAUDERDALE  MOCLDY    74  68  81 SE8       30.18S
POMPANO BEACH  MOCLDY    76  67  73 SE8       30.19R
PEMBROKE PINES MOCLDY    71  67  87 CALM      30.20R
OPA LOCKA      MOCLDY    70  67  90 CALM      30.19S
MIAMI          MOCLDY    73  67  81 E5        30.19S
WEST KENDALL   MOCLDY    70  68  93 E5        30.19S
HOMESTEAD      MOCLDY    69  68  94 E2        30.18F

STATION/POSITION SKY/WX   TEMP    WIND        PRES    WAVE   SWELL
                          AIR SEA DIR/SP/G            HT/PER HT/PER
                          (F)     (DEG/KT/KT) (MB)    (FT/S) (FT/S)
PORT EVERGLADES            76     120/  5/ 10 1022.1
VIRGINIA KEY               76 74  100/  6/  8 1022.6F
LAKE WORTH                 76 77  150/  8/  9 1022.1R
SETTLEMENT POINT           74     110/  5/  6 1023.1R

$$



USA.gov is the U.S. government's official web portal to all federal, state and local government web resources and services.